Time,TemperatureF,DewpointF,PressureIn,WindDirection,WindDirectionDegrees,WindSpeedMPH,WindSpeedGustMPH,Humidity,HourlyPrecipIn,Conditions,Clouds,dailyrainin,SoftwareType,DateUTC
2013-04-26 00:03:00,76.0,-99.9,30.06,ENE,62,7.0,11.0,-999,-99.99,,,-99.99,,2013-04-26 10:03:00,
2013-04-26 00:12:00,76.0,-99.9,30.06,ENE,67,4.0,11.0,-999,-99.99,,,-99.99,,2013-04-26 10:12:00,
2013-04-26 00:23:00,76.0,-99.9,30.06,ENE,64,5.0,12.0,-999,-99.99,,,-99.99,,2013-04-26 10:23:00,
2013-04-26 00:33:00,76.0,-99.9,30.06,East,96,6.0,15.0,-999,-99.99,,,-99.99,,2013-04-26 10:33:00,
2013-04-26 00:42:00,76.0,-99.9,30.06,East,90,3.0,9.0,-999,-99.99,,,-99.99,,2013-04-26 10:42:00,
2013-04-26 00:52:00,76.0,-99.9,30.06,ENE,65,2.0,12.0,-999,-99.99,,,-99.99,,2013-04-26 10:52:00,
2013-04-26 01:02:00,76.0,-99.9,30.06,ESE,112,6.0,16.0,-999,-99.99,,,-99.99,,2013-04-26 11:02:00,
2013-04-26 01:12:00,75.0,-99.9,30.05,NE,51,5.0,10.0,-999,-99.99,,,-99.99,,2013-04-26 11:12:00,
2013-04-26 01:22:00,75.0,-99.9,30.05,East,92,4.0,8.0,-999,-99.99,,,-99.99,,2013-04-26 11:22:00,
2013-04-26 01:32:00,75.0,-99.9,30.05,ENE,63,5.0,11.0,-999,-99.99,,,-99.99,,2013-04-26 11:32:00,
2013-04-26 01:42:00,75.0,-99.9,30.05,ENE,74,5.0,12.0,-999,-99.99,,,-99.99,,2013-04-26 11:42:00,
2013-04-26 01:52:00,75.0,-99.9,30.05,ENE,57,6.0,19.0,-999,-99.99,,,-99.99,,2013-04-26 11:52:00,
2013-04-26 02:02:00,75.0,-99.9,30.04,NE,55,6.0,16.0,-999,-99.99,,,-99.99,,2013-04-26 12:02:00,
2013-04-26 02:12:00,75.0,-99.9,30.04,East,80,5.0,13.0,-999,-99.99,,,-99.99,,2013-04-26 12:12:00,
2013-04-26 02:22:00,75.0,-99.9,30.04,ENE,75,4.0,9.0,-999,-99.99,,,-99.99,,2013-04-26 12:22:00,
2013-04-26 02:32:00,75.0,-99.9,30.04,ENE,72,6.0,12.0,-999,-99.99,,,-99.99,,2013-04-26 12:32:00,
2013-04-26 02:42:00,75.0,-99.9,30.04,ENE,77,6.0,11.0,-999,-99.99,,,-99.99,,2013-04-26 12:42:00,
2013-04-26 02:52:00,75.0,-99.9,30.04,East,83,5.0,10.0,-999,-99.99,,,-99.99,,2013-04-26 12:52:00,
2013-04-26 03:01:00,75.0,-99.9,30.03,East,93,6.0,10.0,-999,-99.99,,,-99.99,,2013-04-26 13:01:00,
2013-04-26 03:12:00,75.0,-99.9,30.03,ESE,104,4.0,10.0,-999,-99.99,,,-99.99,,2013-04-26 13:12:00,
2013-04-26 03:22:00,75.0,-99.9,30.03,SE,128,3.0,8.0,-999,-99.99,,,-99.99,,2013-04-26 13:22:00,
2013-04-26 03:32:00,75.0,-99.9,30.03,ENE,64,3.0,8.0,-999,-99.99,,,-99.99,,2013-04-26 13:32:00,
2013-04-26 03:42:00,75.0,-99.9,30.02,NE,34,2.0,7.0,-999,-99.99,,,-99.99,,2013-04-26 13:42:00,
2013-04-26 03:52:00,75.0,-99.9,30.02,East,93,3.0,6.0,-999,-99.99,,,-99.99,,2013-04-26 13:52:00,
2013-04-26 04:02:00,75.0,-99.9,30.02,NE,52,3.0,4.0,-999,-99.99,,,-99.99,,2013-04-26 14:02:00,
2013-04-26 04:11:00,75.0,-99.9,30.02,NE,38,4.0,8.0,-999,-99.99,,,-99.99,,2013-04-26 14:11:00,
2013-04-26 04:22:00,75.0,-99.9,30.02,ENE,68,2.0,3.0,-999,-99.99,,,-99.99,,2013-04-26 14:22:00,
2013-04-26 04:32:00,75.0,-99.9,30.02,East,95,4.0,7.0,-999,-99.99,,,-99.99,,2013-04-26 14:32:00,
2013-04-26 04:42:00,75.0,-99.9,30.03,East,89,2.0,8.0,-999,-99.99,,,-99.99,,2013-04-26 14:42:00,
2013-04-26 04:52:00,75.0,-99.9,30.02,ESE,106,1.0,6.0,-999,-99.99,,,-99.99,,2013-04-26 14:52:00,
2013-04-26 05:02:00,75.0,-99.9,30.03,ESE,111,5.0,11.0,-999,-99.99,,,-99.99,,2013-04-26 15:02:00,
2013-04-26 05:12:00,74.0,-99.9,30.03,ESE,112,3.0,9.0,-999,-99.99,,,-99.99,,2013-04-26 15:12:00,
2013-04-26 05:22:00,74.0,-99.9,30.03,ENE,77,3.0,6.0,-999,-99.99,,,-99.99,,2013-04-26 15:22:00,
2013-04-26 05:33:00,74.0,-99.9,30.03,East,99,4.0,6.0,-999,-99.99,,,-99.99,,2013-04-26 15:33:00,
2013-04-26 05:43:00,74.0,-99.9,30.02,NE,47,2.0,5.0,-999,-99.99,,,-99.99,,2013-04-26 15:43:00,
2013-04-26 05:53:00,74.0,-99.9,30.02,ENE,65,2.0,6.0,-999,-99.99,,,-99.99,,2013-04-26 15:53:00,
2013-04-26 06:03:00,74.0,-99.9,30.02,ENE,65,4.0,6.0,-999,-99.99,,,-99.99,,2013-04-26 16:03:00,
2013-04-26 06:13:00,74.0,-99.9,30.03,ENE,67,2.0,5.0,-999,-99.99,,,-99.99,,2013-04-26 16:13:00,
2013-04-26 06:23:00,74.0,-99.9,30.03,East,94,3.0,5.0,-999,-99.99,,,-99.99,,2013-04-26 16:23:00,
2013-04-26 06:33:00,74.0,-99.9,30.03,ESE,108,5.0,8.0,-999,-99.99,,,-99.99,,2013-04-26 16:33:00,
2013-04-26 06:42:00,74.0,-99.9,30.03,NE,52,4.0,10.0,-999,-99.99,,,-99.99,,2013-04-26 16:42:00,
2013-04-26 06:53:00,74.0,-99.9,30.03,ENE,63,5.0,13.0,-999,-99.99,,,-99.99,,2013-04-26 16:53:00,
2013-04-26 07:02:00,74.0,-99.9,30.03,NE,48,4.0,9.0,-999,-99.99,,,-99.99,,2013-04-26 17:02:00,
2013-04-26 07:12:00,75.0,-99.9,30.04,ENE,65,6.0,11.0,-999,-99.99,,,-99.99,,2013-04-26 17:12:00,
2013-04-26 07:22:00,75.0,-99.9,30.04,ENE,61,7.0,13.0,-999,-99.99,,,-99.99,,2013-04-26 17:22:00,
2013-04-26 07:32:00,76.0,-99.9,30.04,ENE,58,8.0,16.0,-999,-99.99,,,-99.99,,2013-04-26 17:32:00,
2013-04-26 07:42:00,76.0,-99.9,30.04,East,89,5.0,12.0,-999,-99.99,,,-99.99,,2013-04-26 17:42:00,
2013-04-26 07:52:00,76.0,-99.9,30.05,ESE,102,5.0,13.0,-999,-99.99,,,-99.99,,2013-04-26 17:52:00,
2013-04-26 08:02:00,76.0,-99.9,30.05,ENE,73,6.0,17.0,-999,-99.99,,,-99.99,,2013-04-26 18:02:00,
2013-04-26 08:12:00,77.0,-99.9,30.05,East,91,4.0,14.0,-999,-99.99,,,-99.99,,2013-04-26 18:12:00,
2013-04-26 08:22:00,77.0,-99.9,30.05,East,84,5.0,13.0,-999,-99.99,,,-99.99,,2013-04-26 18:22:00,
2013-04-26 08:33:00,77.0,-99.9,30.06,East,91,8.0,18.0,-999,-99.99,,,-99.99,,2013-04-26 18:33:00,
2013-04-26 08:42:00,77.0,-99.9,30.06,ESE,107,9.0,17.0,-999,-99.99,,,-99.99,,2013-04-26 18:42:00,
2013-04-26 08:52:00,78.0,-99.9,30.06,SE,130,9.0,16.0,-999,-99.99,,,-99.99,,2013-04-26 18:52:00,
2013-04-26 09:02:00,78.0,-99.9,30.06,ENE,69,2.0,12.0,-999,-99.99,,,-99.99,,2013-04-26 19:02:00,
2013-04-26 09:12:00,78.0,-99.9,30.06,ESE,112,7.0,15.0,-999,-99.99,,,-99.99,,2013-04-26 19:12:00,
2013-04-26 09:22:00,78.0,-99.9,30.06,ESE,108,10.0,18.0,-999,-99.99,,,-99.99,,2013-04-26 19:22:00,
2013-04-26 09:32:00,79.0,-99.9,30.06,ESE,114,2.0,18.0,-999,-99.99,,,-99.99,,2013-04-26 19:32:00,
2013-04-26 09:42:00,78.0,-99.9,30.06,ENE,69,9.0,17.0,-999,-99.99,,,-99.99,,2013-04-26 19:42:00,
2013-04-26 09:52:00,79.0,-99.9,30.06,East,98,4.0,13.0,-999,-99.99,,,-99.99,,2013-04-26 19:52:00,
2013-04-26 10:02:00,78.0,-99.9,30.06,ENE,62,11.0,18.0,-999,-99.99,,,-99.99,,2013-04-26 20:02:00,
2013-04-26 10:11:00,79.0,-99.9,30.06,East,93,10.0,19.0,-999,-99.99,,,-99.99,,2013-04-26 20:11:00,
2013-04-26 10:22:00,79.0,-99.9,30.06,ENE,68,9.0,21.0,-999,-99.99,,,-99.99,,2013-04-26 20:22:00,
2013-04-26 10:32:00,79.0,-99.9,30.06,ENE,75,8.0,21.0,-999,-99.99,,,-99.99,,2013-04-26 20:32:00,
2013-04-26 10:42:00,79.0,-99.9,30.06,ENE,65,8.0,16.0,-999,-99.99,,,-99.99,,2013-04-26 20:42:00,
2013-04-26 10:52:00,79.0,-99.9,30.06,NE,50,9.0,17.0,-999,-99.99,,,-99.99,,2013-04-26 20:52:00,
2013-04-26 11:02:00,79.0,-99.9,30.06,NE,55,8.0,19.0,-999,-99.99,,,-99.99,,2013-04-26 21:02:00,
2013-04-26 11:11:00,80.0,-99.9,30.06,East,96,4.0,16.0,-999,-99.99,,,-99.99,,2013-04-26 21:11:00,
2013-04-26 11:22:00,80.0,-99.9,30.06,ENE,68,7.0,17.0,-999,-99.99,,,-99.99,,2013-04-26 21:22:00,
2013-04-26 11:33:00,80.0,-99.9,30.06,ENE,60,7.0,14.0,-999,-99.99,,,-99.99,,2013-04-26 21:33:00,
2013-04-26 11:42:00,80.0,-99.9,30.06,ENE,75,9.0,17.0,-999,-99.99,,,-99.99,,2013-04-26 21:42:00,
2013-04-26 11:53:00,80.0,-99.9,30.06,East,79,7.0,17.0,-999,-99.99,,,-99.99,,2013-04-26 21:53:00,
2013-04-26 12:03:00,80.0,-99.9,30.06,East,87,8.0,18.0,-999,-99.99,,,-99.99,,2013-04-26 22:03:00,
2013-04-26 12:13:00,80.0,-99.9,30.06,ENE,62,8.0,12.0,-999,-99.99,,,-99.99,,2013-04-26 22:13:00,
2013-04-26 12:23:00,79.0,-99.9,30.06,ENE,74,10.0,17.0,-999,-99.99,,,-99.99,,2013-04-26 22:23:00,
2013-04-26 12:33:00,79.0,-99.9,30.06,ENE,61,10.0,21.0,-999,-99.99,,,-99.99,,2013-04-26 22:33:00,
2013-04-26 12:42:00,80.0,-99.9,30.05,ESE,120,10.0,18.0,-999,-99.99,,,-99.99,,2013-04-26 22:42:00,
2013-04-26 12:52:00,81.0,-99.9,30.05,ENE,71,5.0,20.0,-999,-99.99,,,-99.99,,2013-04-26 22:52:00,
2013-04-26 13:02:00,81.0,-99.9,30.05,ESE,112,8.0,15.0,-999,-99.99,,,-99.99,,2013-04-26 23:02:00,
2013-04-26 13:12:00,81.0,-99.9,30.04,ESE,112,8.0,14.0,-999,-99.99,,,-99.99,,2013-04-26 23:12:00,
2013-04-26 13:22:00,80.0,-99.9,30.04,ENE,67,7.0,16.0,-999,-99.99,,,-99.99,,2013-04-26 23:22:00,
2013-04-26 13:32:00,80.0,-99.9,30.04,East,82,8.0,17.0,-999,-99.99,,,-99.99,,2013-04-26 23:32:00,
2013-04-26 13:42:00,80.0,-99.9,30.04,East,101,5.0,16.0,-999,-99.99,,,-99.99,,2013-04-26 23:42:00,
2013-04-26 13:52:00,80.0,-99.9,30.03,NE,54,10.0,15.0,-999,-99.99,,,-99.99,,2013-04-26 23:52:00,
2013-04-26 14:01:00,80.0,-99.9,30.03,NE,54,10.0,15.0,-999,-99.99,,,-99.99,,2013-04-27 00:01:00,
2013-04-26 14:12:00,82.0,-99.9,30.03,East,85,7.0,19.0,-999,-99.99,,,-99.99,,2013-04-27 00:12:00,
2013-04-26 14:22:00,80.0,-99.9,30.02,East,91,7.0,17.0,-999,-99.99,,,-99.99,,2013-04-27 00:22:00,
2013-04-26 14:32:00,82.0,-99.9,30.02,ESE,102,8.0,15.0,-999,-99.99,,,-99.99,,2013-04-27 00:32:00,
2013-04-26 14:42:00,80.0,-99.9,30.02,East,82,8.0,20.0,-999,-99.99,,,-99.99,,2013-04-27 00:42:00,
2013-04-26 14:52:00,81.0,-99.9,30.02,ENE,78,6.0,13.0,-999,-99.99,,,-99.99,,2013-04-27 00:52:00,
2013-04-26 15:01:00,80.0,-99.9,30.01,NE,52,8.0,16.0,-999,-99.99,,,-99.99,,2013-04-27 01:01:00,
2013-04-26 15:12:00,80.0,-99.9,30.01,ENE,60,8.0,16.0,-999,-99.99,,,-99.99,,2013-04-27 01:12:00,
2013-04-26 15:21:00,81.0,-99.9,30.01,ENE,67,8.0,15.0,-999,-99.99,,,-99.99,,2013-04-27 01:21:00,
2013-04-26 15:32:00,80.0,-99.9,30.01,ESE,113,9.0,19.0,-999,-99.99,,,-99.99,,2013-04-27 01:32:00,
2013-04-26 15:42:00,80.0,-99.9,30.01,East,97,6.0,16.0,-999,-99.99,,,-99.99,,2013-04-27 01:42:00,
2013-04-26 15:52:00,80.0,-99.9,30.01,East,83,6.0,13.0,-999,-99.99,,,-99.99,,2013-04-27 01:52:00,
2013-04-26 16:02:00,81.0,-99.9,30.01,ESE,103,7.0,18.0,-999,-99.99,,,-99.99,,2013-04-27 02:02:00,
2013-04-26 16:11:00,80.0,-99.9,30.01,ENE,71,9.0,16.0,-999,-99.99,,,-99.99,,2013-04-27 02:11:00,
2013-04-26 16:22:00,80.0,-99.9,30.01,East,94,9.0,13.0,-999,-99.99,,,-99.99,,2013-04-27 02:22:00,
2013-04-26 16:32:00,79.0,-99.9,30.00,ENE,66,7.0,18.0,-999,-99.99,,,-99.99,,2013-04-27 02:32:00,
2013-04-26 16:42:00,80.0,-99.9,30.00,ENE,71,5.0,15.0,-999,-99.99,,,-99.99,,2013-04-27 02:42:00,
2013-04-26 16:52:00,80.0,-99.9,30.00,ESE,108,6.0,14.0,-999,-99.99,,,-99.99,,2013-04-27 02:52:00,
2013-04-26 17:02:00,79.0,-99.9,30.00,NE,50,9.0,18.0,-999,-99.99,,,-99.99,,2013-04-27 03:02:00,
2013-04-26 17:11:00,79.0,-99.9,30.00,NE,53,8.0,17.0,-999,-99.99,,,-99.99,,2013-04-27 03:11:00,
2013-04-26 17:22:00,79.0,-99.9,30.00,East,87,7.0,18.0,-999,-99.99,,,-99.99,,2013-04-27 03:22:00,
2013-04-26 17:33:00,79.0,-99.9,30.00,East,79,6.0,14.0,-999,-99.99,,,-99.99,,2013-04-27 03:33:00,
2013-04-26 17:43:00,79.0,-99.9,30.00,NE,50,8.0,13.0,-999,-99.99,,,-99.99,,2013-04-27 03:43:00,
2013-04-26 17:53:00,79.0,-99.9,30.00,NE,51,9.0,12.0,-999,-99.99,,,-99.99,,2013-04-27 03:53:00,
2013-04-26 18:03:00,79.0,-99.9,30.01,East,87,6.0,10.0,-999,-99.99,,,-99.99,,2013-04-27 04:03:00,
2013-04-26 18:13:00,78.0,-99.9,30.01,East,99,6.0,13.0,-999,-99.99,,,-99.99,,2013-04-27 04:13:00,
2013-04-26 18:23:00,78.0,-99.9,30.01,ENE,78,5.0,10.0,-999,-99.99,,,-99.99,,2013-04-27 04:23:00,
2013-04-26 18:33:00,77.0,-99.9,30.01,NE,49,6.0,10.0,-999,-99.99,,,-99.99,,2013-04-27 04:33:00,
2013-04-26 18:43:00,77.0,-99.9,30.01,NE,52,5.0,10.0,-999,-99.99,,,-99.99,,2013-04-27 04:43:00,
2013-04-26 18:53:00,77.0,-99.9,30.02,ENE,69,5.0,10.0,-999,-99.99,,,-99.99,,2013-04-27 04:53:00,
2013-04-26 19:02:00,77.0,-99.9,30.02,ENE,76,5.0,13.0,-999,-99.99,,,-99.99,,2013-04-27 05:02:00,
2013-04-26 19:12:00,77.0,-99.9,30.02,ENE,60,4.0,8.0,-999,-99.99,,,-99.99,,2013-04-27 05:12:00,
2013-04-26 19:22:00,76.0,-99.9,30.02,ENE,64,4.0,12.0,-999,-99.99,,,-99.99,,2013-04-27 05:22:00,
2013-04-26 19:32:00,76.0,-99.9,30.03,NE,54,4.0,7.0,-999,-99.99,,,-99.99,,2013-04-27 05:32:00,
2013-04-26 19:42:00,76.0,-99.9,30.03,ENE,59,4.0,9.0,-999,-99.99,,,-99.99,,2013-04-27 05:42:00,
2013-04-26 19:52:00,76.0,-99.9,30.03,East,88,4.0,8.0,-999,-99.99,,,-99.99,,2013-04-27 05:52:00,
2013-04-26 20:02:00,76.0,-99.9,30.03,ENE,65,5.0,9.0,-999,-99.99,,,-99.99,,2013-04-27 06:02:00,
2013-04-26 20:12:00,76.0,-99.9,30.03,ESE,111,3.0,8.0,-999,-99.99,,,-99.99,,2013-04-27 06:12:00,
2013-04-26 20:22:00,76.0,-99.9,30.03,East,94,4.0,6.0,-999,-99.99,,,-99.99,,2013-04-27 06:22:00,
2013-04-26 20:32:00,76.0,-99.9,30.04,East,83,1.0,8.0,-999,-99.99,,,-99.99,,2013-04-27 06:32:00,
2013-04-26 20:42:00,76.0,-99.9,30.04,East,91,4.0,7.0,-999,-99.99,,,-99.99,,2013-04-27 06:42:00,
2013-04-26 20:52:00,76.0,-99.9,30.04,ESE,108,4.0,6.0,-999,-99.99,,,-99.99,,2013-04-27 06:52:00,
2013-04-26 21:02:00,76.0,-99.9,30.04,East,85,4.0,7.0,-999,-99.99,,,-99.99,,2013-04-27 07:02:00,
2013-04-26 21:11:00,76.0,-99.9,30.04,ENE,66,3.0,8.0,-999,-99.99,,,-99.99,,2013-04-27 07:11:00,
2013-04-26 21:22:00,76.0,-99.9,30.04,ENE,62,4.0,6.0,-999,-99.99,,,-99.99,,2013-04-27 07:22:00,
2013-04-26 21:32:00,76.0,-99.9,30.05,ENE,71,1.0,7.0,-999,-99.99,,,-99.99,,2013-04-27 07:32:00,
2013-04-26 21:42:00,76.0,-99.9,30.05,ENE,63,5.0,9.0,-999,-99.99,,,-99.99,,2013-04-27 07:42:00,
2013-04-26 21:52:00,76.0,-99.9,30.06,ENE,73,2.0,6.0,-999,-99.99,,,-99.99,,2013-04-27 07:52:00,
2013-04-26 22:02:00,76.0,-99.9,30.06,NE,49,1.0,6.0,-999,-99.99,,,-99.99,,2013-04-27 08:02:00,
2013-04-26 22:12:00,76.0,-99.9,30.06,ENE,63,4.0,7.0,-999,-99.99,,,-99.99,,2013-04-27 08:12:00,
2013-04-26 22:22:00,76.0,-99.9,30.06,ENE,73,4.0,9.0,-999,-99.99,,,-99.99,,2013-04-27 08:22:00,
2013-04-26 22:33:00,76.0,-99.9,30.06,ENE,75,1.0,5.0,-999,-99.99,,,-99.99,,2013-04-27 08:33:00,
2013-04-26 22:42:00,75.0,-99.9,30.06,East,92,3.0,6.0,-999,-99.99,,,-99.99,,2013-04-27 08:42:00,
2013-04-26 22:52:00,75.0,-99.9,30.06,East,96,2.0,4.0,-999,-99.99,,,-99.99,,2013-04-27 08:52:00,
2013-04-26 23:01:00,75.0,-99.9,30.06,NE,53,3.0,5.0,-999,-99.99,,,-99.99,,2013-04-27 09:01:00,
2013-04-26 23:11:00,75.0,-99.9,30.06,East,97,3.0,10.0,-999,-99.99,,,-99.99,,2013-04-27 09:11:00,
2013-04-26 23:22:00,76.0,-99.9,30.06,ESE,103,3.0,6.0,-999,-99.99,,,-99.99,,2013-04-27 09:22:00,
2013-04-26 23:33:00,75.0,-99.9,30.07,ESE,117,3.0,6.0,-999,-99.99,,,-99.99,,2013-04-27 09:33:00,
2013-04-26 23:43:00,75.0,-99.9,30.06,East,82,3.0,7.0,-999,-99.99,,,-99.99,,2013-04-27 09:43:00,
2013-04-26 23:53:00,75.0,-99.9,30.06,ESE,102,3.0,8.0,-999,-99.99,,,-99.99,,2013-04-27 09:53:00,